INTELSAT 17 (IS-17)

Last updated on May 23, 2019, 3:05 a.m. UTC

1 37238U 10065B   19142.83572907 -.00000010  00000-0  00000+0 0  9994
2 37238   0.0070 270.7089 0002689 147.9599 188.3621  1.00272132 31027
UTC
Height (km)
Latitude
Longitude
Inclination
Orbital Period
UTC large
Height (km)
Speed (km/s)
/
Latitude / Longitude
Inclination (degrees)
Orbital Period (minutes)
Azimuth
Elevation
Range (km)
Doppler Factor
iOS Compass Heading
iOS Angle

Next 30 passes for location: Hong Kong

Rise time Rise Azimuth (degrees) Set time Set Azimuth (degrees) Duration Max altitude (degrees)

No matching passes for this satellites